Flag Weather past 2 weeks in Asuncion, Paraguay

Now
72 °F

Passing clouds.


Feels Like: 69 °F
Forecast: 71 / 90 °F
Wind: 2 mph from North

Location: Asuncion / Aeropuerto

Current Time: Nov 25, 2014 at 9:15:37 PM

Latest Report: Nov 25, 2014 at 8:00 PM


Visibility: N/A

Pressure: 29.74 "Hg

Humidity: 88%

Dew point: 68 °F

Location of AsuncionLocation

Historic Weather in Asuncion — Graph

°F

Asuncion temperature yesterday

Maximum temperature yesterday: 91 °F (at 4:00 PM)
Minimum temperature yesterday: 68 °F (at 1:00 AM)
Average temperature yesterday: 81 °F

Past Weeks' High & Low Weather Summary

 TemperatureHumidityPressure
High91 °F (Nov 17, 2:00 PM)100% (Nov 11, 8:30 AM)30.07 "Hg (Nov 11, 8:30 AM)
Low57 °F (Nov 15, 6:00 AM)22% (Nov 15, 4:00 PM)29.62 "Hg (Nov 11, 8:00 PM)
Average76 °F70%29.84 "Hg
* Reported Nov 10 8:00 PM — Nov 25 8:00 PM, Asuncion, Weather by CustomWeather, © 2014

Note: Actual official high and low records may vary slightly from our data, if they occured in-between our weather recording intervals... More about our weather records

Advertising

Asuncion weather history for previous 24 hours

 ConditionsComfort  
Time TempWeatherWind HumidityBarometerVisibility
8:00 PM
Nov 25
72 °FPassing clouds.2 mph88%29.74 "HgN/A
7:00 PM75 °FPassing clouds.7 mph83%29.71 "HgN/A
6:00 PM75 °FBroken clouds.6 mph83%29.71 "HgN/A
5:00 PM75 °FPartly sunny.9 mph78%29.68 "HgN/A
4:00 PM73 °FBroken clouds.13 mph83%29.71 "HgN/A
3:00 PM73 °FPartly sunny.5 mph89%29.65 "HgN/A
2:00 PM70 °FPartly sunny.9 mph88%29.68 "HgN/A
1:00 PM68 °FThunderstorms. Overcast.12 mph94%29.86 "Hg4 mi
12:00 PM68 °FThunderstorms. Mostly cloudy.13 mph100%29.83 "Hg5 mi
11:00 AM68 °FStrong thunderstorms. Mostly cloudy.12 mph100%29.86 "Hg1 mi
9:00 AM68 °FStrong thunderstorms. Mostly cloudy.13 mph100%29.77 "Hg1 mi
8:30 AM68 °FStrong thunderstorms. Overcast.6 mph100%29.80 "Hg1 mi
8:00 AM68 °FStrong thunderstorms. Overcast.5 mph100%29.77 "Hg1 mi
7:05 AM73 °FThunderstorms. Mostly cloudy.8 mph83%29.71 "HgN/A
7:00 AM73 °FThunderstorms. Mostly cloudy.6 mph83%29.71 "HgN/A
6:00 AM75 °FThunderstorms. Partly sunny.20 mph83%29.71 "HgN/A
5:00 AM77 °FThunderstorms. Partly cloudy.7 mph89%29.68 "HgN/A
4:00 AM77 °FThunderstorms. Passing clouds.No wind89%29.71 "HgN/A
3:00 AM77 °FClear.No wind94%29.74 "Hg10 mi
2:00 AM79 °FClear.No wind89%29.74 "Hg10 mi
1:00 AM81 °FClear.3 mph84%29.74 "Hg10 mi
12:00 AM81 °FClear.3 mph84%29.74 "Hg10 mi
11:00 PM
Nov 24
81 °FClear.3 mph84%29.74 "Hg10 mi
10:00 PM81 °FClear.No wind84%29.68 "Hg10 mi
9:00 PM82 °FClear.No wind79%29.68 "Hg10 mi
Weather by CustomWeather, © 2014

See weather overviewHow to use our weather pages